{"data":{"norad_id":65833,"intl_designator":"2025-221L","name":"STARLINK-35345","alt_names":[],"object_type":"PAYLOAD","status":"ACTIVE","operator":null,"country":"US","launch_date":"2025-09-29","launch_site_code":"AFWTR","launch_vehicle":null,"mission":null,"orbit_class":"UNKNOWN","rcs_meters":null,"size_class":null,"mass_kg":null,"dimensions":null,"purposes":["comms"],"wikipedia_slug":null,"has_3d_model":false,"image_url":null,"decayed_at":null,"tle_current":{"epoch":"2026-05-25T00:45:27.157248Z","epoch_age_seconds":79078,"freshness":"FRESH","line1":"1 65833U 25221L   26145.03156432  .00016993  00000+0  58432-3 0  9991","line2":"2 65833  53.1579  93.5993 0001168 101.2574 258.8558 15.30213026 37779","mean_motion":15.30213026,"eccentricity":0.0001168,"inclination_deg":53.1579,"raan_deg":93.5993,"arg_perigee_deg":101.2574,"mean_anomaly_deg":258.8558,"bstar":0.00058432,"rev_number":3777,"period_min":94.104544630899,"perigee_km":474.37570942817,"apogee_km":475.97664338618,"semimajor_km":6853.3131764072,"source":"CELESTRAK","updated_at":"2026-05-25T13:38:20.943818Z"}}}